Regional Weather Roundup
Issued by NWS

Home | Current Version | Previous Version | Text Only | Print | Product List | Glossary Off
Versions: 1 2 3 4 5 6 7 8 9 10 11 12 13 14 15 16 17 18 19 20 21 22 23 24 25 26 27 28 29 30 31 32 33 34 35 36 37 38 39 40 41 42 43 44 45 46 47 48 49 50

000
ASUS43 KDTX 051410
RWRMI
MICHIGAN HOURLY REGIONAL WEATHER ROUNDUP
NATIONAL WEATHER SERVICE DETROIT/PONTIAC MI
1000 AM EDT TUE MAY 05 2015

NOTE: "FAIR" INDICATES FEW OR NO CLOUDS BELOW 12,000 FEET WITH NO
SIGNIFICANT WEATHER AND/OR OBSTRUCTION TO VISIBILITY.

MIZ047>049-052>055-059>063-066>070-074>076-081>083-051500-
SOUTHEAST LOWER MICHIGAN

CITY           SKY/WX    TMP DP  RH WIND       PRES   REMARKS
ADRIAN         LGT RAIN  54  42  64 E8        30.29S
ALMA           CLOUDY    51  43  75 N3        30.34R
ANN ARBOR      CLOUDY    56  34  43 E5        30.29R
BAD AXE        CLOUDY    48  39  70 N5        30.33R
CARO           RAIN      49  41  75 CALM      30.32S
DETROIT CITY   CLOUDY    54  35  48 E5        30.29F
DETROIT        CLOUDY    58  35  42 NE3       30.29F
FLINT          CLOUDY    54  36  50 NE3       30.33R
GROSSE ILE     CLOUDY    55  39  54 NE8       30.26F
HILLSDALE      RAIN      51  47  86 E6        30.28R
HOWELL         DRIZZLE   52  38  59 CALM      30.30S

CITY           SKY/WX    TMP DP  RH WIND       PRES   REMARKS
JACKSON        LGT RAIN  51  44  77 E8        30.30R
LAMBERTVILLE   LGT RAIN  55  41  58 E3        30.29R
LANSING        LGT RAIN  51  40  65 N5        30.33R
LAPEER         LGT RAIN  49  38  63 NE3       30.32R
MASON          HVY RAIN  49  43  78 CALM      30.31R VSB 1
MONROE         LGT RAIN  57  37  47 NE7       30.27R
MT. CLEMENS    PTSUNNY   54  38  55 NE3       30.27F
PONTIAC        CLOUDY    54  35  48 NE3       30.29S
PORT HOPE        N/A     45  38  76 NW7       30.31R
PORT HURON     CLOUDY    48  39  71 N6        30.30S
TRI CITIES     LGT RAIN  53  42  66 NE6       30.34R
MIDLAND        CLOUDY    52  37  55 N3        30.33R
TROY           CLOUDY    55  34  45 E3        30.31S
SAGINAW HB     LGT RAIN  50  41  71 NE5       30.33R
$$
MIZ043>046-050>051-056>058-064>065-071>073-077>080-051500-
SOUTHWEST LOWER MICHIGAN

CITY           SKY/WX    TMP DP  RH WIND       PRES   REMARKS
BATTLE CREEK   LGT RAIN  50  46  86 NE12      30.28R FOG
BENTON HARBOR  CLOUDY    53  52  96 E10       30.22S
BIG RAPIDS     LGT RAIN  50  39  66 CALM      30.34R
COLDWATER      LGT RAIN  52  50  92 E12       30.25F
FREMONT        LGT RAIN  49  42  76 E7        30.32R
HOLLAND        LGT RAIN  52  47  83 E16G22    30.28F
GRAND RAPIDS   LGT RAIN  52  42  69 E14       30.31R
IONIA          LGT RAIN  52  42  67 E9        30.31S
KALAMAZOO      LGT RAIN  52  49  89 N9        30.29R FOG
LUDINGTON      CLOUDY    53  37  55 E6        30.32S
MARSHALL       RAIN      48  46  91 NE6       30.28R
MOUNT PLEASANT LGT RAIN  50  40  66 N3        30.33S
MUSKEGON       LGT RAIN  51  45  79 E9        30.30S
SOUTH HAVEN    LGT RAIN  53  51  94 NE12G18   30.22F
$$
MIZ016>042-051500-
NORTHERN LOWER MICHIGAN

CITY           SKY/WX    TMP DP  RH WIND       PRES   REMARKS
ALPENA         CLOUDY    53  39  59 CALM      30.35R
BEAVER ISLAND  SUNNY     53  37  53 NE8       30.36R
BELLAIRE       PTSUNNY   49  38  67 CALM      30.36R
CADILLAC       CLOUDY    48  35  59 NE7       30.33R
CHARLEVOIX     MOSUNNY   50  39  66 N5        30.38R
FRANKFORT      CLOUDY    55  29  37 E9G16     30.33S
GAYLORD        CLOUDY    51  33  50 E5        30.35R
GRAYLING       CLOUDY    48  36  63 CALM      30.35R
HARBOR SPRINGS PTSUNNY   56  34  43 E7        30.35R
HOUGHTON LAKE    N/A     48  35  60 NE7       30.34R
MANISTEE       CLOUDY    48  34  57 E6        30.34S
OSCODA         CLOUDY    49  40  68 N5        30.33R
PELLSTON       MOSUNNY   56  36  47 E5        30.36R
ROGERS CITY    PTSUNNY   49  37  61 N3        30.37R
TRAVERSE CITY  CLOUDY    49  37  63 CALM      30.35R
$$
MIZ007>008-015-051500-
EASTERN UPPER MICHIGAN

CITY           SKY/WX    TMP DP  RH WIND       PRES   REMARKS
KINROSS        SUNNY     54  37  54 CALM      30.35S
MACKINAC ISLAN SUNNY     55  32  43 NE6       30.35R
NEWBERRY       SUNNY     55  37  51 N6        30.35R
S. S. MARIE    SUNNY     53  38  56 CALM      30.35R
MUNISING         N/A     46  37  71 CALM      30.33S
$$
MIZ004>006-011>014-085-051500-
CENTRAL UPPER MICHIGAN

CITY           SKY/WX    TMP DP  RH WIND       PRES   REMARKS
MANISTIQUE     SUNNY     55  38  53 CALM      30.35R
ESCANABA       MOSUNNY   55  36  47 E6        30.35S
MENOMINEE      MOSUNNY   52  36  54 E10       30.34S
SAWYER-GWINN   SUNNY     55  32  41 CALM      30.34R
$$
MIZ001>003-009>011-084-051500-
WESTERN UPPER MICHIGAN

CITY           SKY/WX    TMP DP  RH WIND       PRES   REMARKS
IRON MOUNTAIN  SUNNY     57  33  40 E5        30.32S
HOUGHTON       SUNNY     59  31  34 S3        30.31R
COPPER HARBOR    N/A     52  31  44 CALM      30.31R
IRONWOOD       SUNNY     59  37  44 E6        30.28S
$$

ABBREVIATIONS USED IN REMARKS
   TC - TEMPERATURE IN CELSIUS
  WCI - WIND CHILL INDEX
   HX - HEAT INDEX
  VSB - VISIBILITY




USA.gov is the U.S. government's official web portal to all federal, state and local government web resources and services.